Latest Coastal Weather Observations for Cape Grim

IDV60701

Issued at 5:05 pm EST Thursday 2 October 2014 (issued every 10 minutes, with the page automatically refreshed every 10 minutes)

About coastal observations | Map of coastal stations | Coastal observations for VIC | Marine services | Other Formats
Station Details ID: 091331 Name: CAPE GRIM Lat: -40.68 Lon: 144.69 Height: 86.0 m
Data from the previous 72 hours. | See also: Recent months at Cape Grim
Date/Time
EST
Temp

°C
Wind Pressure Rain
since 9am
mm
Weather Cloud Vis
km
Sea
Height
m
Swell
Dir
 
Speed
knots
Gust
knots
hPa Trend Height
m
Period
s
Dir
02/05:00pm 12.1 SW 26 32 1020.2 - 0.0 - Partly cloudy - - - - -
02/04:30pm 12.2 SW 27 33 1020.2 - 0.0 - Partly cloudy - - - - -
02/04:00pm 11.8 SW 25 32 1020.1 - 0.0 - Partly cloudy - - - - -
02/03:30pm 12.4 SW 26 31 1020.0 - 0.0 - Partly cloudy - - - - -
02/03:19pm 12.0 SW 25 37 1020.0 - 0.0 - Partly cloudy - - - - -
02/03:00pm 12.1 SW 24 30 1020.0 - 0.0 - Cloudy - - - - -
02/02:30pm 11.9 SW 27 34 1019.8 - 0.0 - Partly cloudy - - - - -
02/02:00pm 12.6 SW 27 33 1019.8 - 0.0 - Partly cloudy - - - - -
02/01:53pm 12.4 SW 25 35 1020.0 - 0.0 - Partly cloudy - - - - -
02/01:30pm 12.2 SW 24 30 1019.9 - 0.0 - Partly cloudy - - - - -
02/01:01pm 11.7 SW 23 33 1019.7 - 0.0 - Partly cloudy - - - - -
02/01:00pm 11.8 SW 24 33 1019.7 - 0.0 - Partly cloudy - - - - -
02/12:34pm 12.2 SW 23 33 1019.8 - 0.0 - Partly cloudy - - - - -
02/12:30pm 12.0 SW 25 34 1019.9 - 0.0 - Partly cloudy - - - - -
02/12:02pm 12.5 SW 22 32 1019.6 - 0.0 - Partly cloudy - - - - -
02/12:00pm 12.5 SW 23 32 1019.6 - 0.0 - Mostly cloudy - - - - -
02/11:31am 12.2 SW 25 35 1019.6 - 0.0 - Partly cloudy - - - - -
02/11:30am 12.1 SW 26 35 1019.6 - 0.0 - Partly cloudy - - - - -
02/11:00am 11.7 SW 21 32 1019.7 - 0.0 - Partly cloudy - - - - -
02/10:46am 12.3 SW 27 37 1019.6 - 0.0 - Partly cloudy - - - - -
02/10:30am 12.0 SW 26 34 1019.6 - 0.0 - Partly cloudy - - - - -
02/10:07am 12.2 SW 25 35 1019.6 - 0.0 - Partly cloudy - - - - -
02/10:00am 12.1 SW 27 35 1019.6 - 0.0 - Partly cloudy - - - - -
02/09:34am 11.6 SW 23 35 1019.6 - 0.0 - Partly cloudy - - - - -
02/09:30am 11.6 SW 24 33 1019.7 - 0.0 - Partly cloudy - - - - -
02/09:09am 11.5 WSW 18 29 1019.5 - 0.0 - Partly cloudy - - - - -
02/09:04am 11.6 SW 19 29 1019.6 - 0.0 - Partly cloudy - - - - -
02/09:00am 11.3 SW 21 29 1019.5 - 1.2 Recent precip. Cloudy - - - - -
02/08:52am 11.2 WSW 19 33 1019.6 - 1.2 - Partly cloudy - - - - -
02/08:30am 12.0 WSW 16 27 1019.2 - 0.8 - Partly cloudy - - - - -
02/08:00am 11.4 SW 19 32 1019.3 - 0.8 - Partly cloudy - - - - -
02/07:42am 11.6 SW 21 31 1019.2 - 0.8 - Partly cloudy - - - - -
02/07:30am 11.1 SW 25 33 1019.1 - 0.8 - Partly cloudy - - - - -
02/07:06am 11.5 WSW 21 31 1019.0 - 0.8 - Partly cloudy - - - - -
02/07:00am 11.4 SW 22 31 1019.0 - 0.8 - Partly cloudy - - - - -
02/06:30am 11.0 WSW 20 32 1018.8 - 0.8 - Partly cloudy - - - - -
02/06:00am 11.7 WSW 16 28 1018.4 - 0.6 Recent precip. Cloudy - - - - -
02/05:30am 11.5 WSW 17 27 1018.3 - 0.6 - Partly cloudy - - - - -
02/05:00am 11.0 W 17 28 1018.4 - 0.4 - Partly cloudy - - - - -
02/04:30am 11.4 WSW 18 30 1018.1 - 0.4 - Partly cloudy - - - - -
02/04:00am 11.5 W 17 28 1018.1 - 0.4 - Partly cloudy - - - - -
02/03:30am 11.4 W 18 28 1018.0 - 0.4 - Partly cloudy - - - - -
02/03:00am 11.8 W 19 33 1018.2 - 0.4 Recent precip. Cloudy - - - - -
02/02:35am 11.7 W 19 31 1018.3 - 0.2 - Partly cloudy - - - - -
02/02:30am 11.7 W 19 27 1018.4 - 0.2 - Partly cloudy - - - - -
02/02:00am 11.6 W 18 29 1018.7 - 0.2 - Partly cloudy - - - - -
02/01:30am 11.2 WSW 19 34 1019.0 - 0.2 - Partly cloudy - - - - -
02/01:00am 11.3 W 20 33 1019.2 - 0.0 - Partly cloudy - - - - -
02/12:30am 11.6 W 19 30 1019.3 - 0.0 - Partly cloudy - - - - -
02/12:00am 12.1 W 20 33 1019.4 - 0.0 - Mostly cloudy - - - - -
 
Date/Time
EST
Temp

°C
Wind Pressure Rain
since 9am
mm
Weather Cloud Vis
km
Sea
Height
m
Swell
Dir
 
Speed
knots
Gust
knots
hPa Trend Height
m
Period
s
Dir
01/11:30pm 11.9 W 21 33 1019.7 - 0.0 - Partly cloudy - - - - -
01/11:05pm 11.7 W 21 33 1019.7 - 0.0 - Partly cloudy - - - - -
01/11:00pm 11.8 W 21 29 1019.7 - 0.0 - Partly cloudy - - - - -
01/10:38pm 12.0 W 19 29 1019.8 - 0.0 - Partly cloudy - - - - -
01/10:30pm 11.8 W 20 29 1019.9 - 0.0 - Partly cloudy - - - - -
01/10:04pm 11.8 W 19 29 1020.1 - 0.0 - Partly cloudy - - - - -
01/10:00pm 12.2 W 19 27 1020.0 - 0.0 - Partly cloudy - - - - -
01/09:30pm 11.8 W 19 29 1020.1 - 0.0 - Partly cloudy - - - - -
01/09:00pm 11.6 W 20 32 1020.2 - 0.0 - Cloudy - - - - -
01/08:35pm 11.7 W 19 29 1020.3 - 0.0 - Partly cloudy - - - - -
01/08:30pm 11.6 W 20 29 1020.4 - 0.0 - Partly cloudy - - - - -
01/08:03pm 11.8 W 21 31 1020.4 - 0.0 - Partly cloudy - - - - -
01/08:00pm 11.9 W 22 31 1020.4 - 0.0 - Partly cloudy - - - - -
01/07:51pm 11.8 W 21 31 1020.4 - 0.0 - Partly cloudy - - - - -
01/07:30pm 11.6 W 21 28 1020.4 - 0.0 - Partly cloudy - - - - -
01/07:03pm 11.6 W 18 28 1020.4 - 0.0 - Partly cloudy - - - - -
01/07:00pm 11.5 W 19 26 1020.4 - 0.0 - Partly cloudy - - - - -
01/06:30pm 11.8 W 19 29 1020.3 - 0.0 - Partly cloudy - - - - -
01/06:06pm 11.7 W 16 26 1020.2 - 0.0 - Partly cloudy - - - - -
01/06:00pm 11.7 W 18 26 1020.1 - 0.0 - Cloudy - - - - -
01/05:34pm 11.6 W 18 29 1020.1 - 0.0 - Partly cloudy - - - - -
01/05:30pm 11.7 W 18 27 1020.1 - 0.0 - Partly cloudy - - - - -
01/05:09pm 11.6 W 18 31 1020.0 - 0.0 - Partly cloudy - - - - -
01/05:00pm 11.6 W 18 24 1020.0 - 0.0 - Partly cloudy - - - - -
01/04:31pm 11.6 WSW 15 25 1020.0 - 0.0 - Partly cloudy - - - - -
01/04:30pm 11.6 WSW 15 23 1020.0 - 0.0 - Partly cloudy - - - - -
01/04:00pm 11.8 WSW 17 29 1020.1 - 0.0 - Partly cloudy - - - - -
01/03:30pm 11.6 WSW 19 29 1020.2 - 0.0 - Partly cloudy - - - - -
01/03:00pm 11.5 W 16 29 1020.0 - 0.0 - Cloudy - - - - -
01/02:40pm 11.2 WSW 15 26 1019.9 - 0.0 - Partly cloudy - - - - -
01/02:30pm 11.4 WSW 14 23 1019.9 - 0.0 - Partly cloudy - - - - -
01/02:00pm 11.4 WSW 14 27 1020.0 - 0.0 - Partly cloudy - - - - -
01/01:33pm 11.1 WSW 16 27 1020.2 - 0.0 - Partly cloudy - - - - -
01/01:30pm 11.0 WSW 16 25 1020.2 - 0.0 - Partly cloudy - - - - -
01/01:00pm 11.5 WSW 15 25 1020.1 - 0.0 - Partly cloudy - - - - -
01/12:30pm 11.3 WSW 15 25 1020.0 - 0.0 - Partly cloudy - - - - -
01/12:00pm 11.2 WSW 15 26 1019.8 - 0.0 - Partly cloudy - - - - -
01/11:30am 11.2 SW 21 33 1019.9 - 0.0 - Partly cloudy - - - - -
01/11:00am 11.1 SW 20 33 1019.5 - 0.0 - Partly cloudy - - - - -
01/10:35am 11.1 SW 21 31 1019.7 - 0.0 - Partly cloudy - - - - -
01/10:30am 10.9 SW 22 31 1019.6 - 0.0 - Partly cloudy - - - - -
01/10:00am 11.3 SW 20 33 1019.2 - 0.0 - Partly cloudy - - - - -
01/09:35am 11.0 SW 19 34 1019.0 - 0.0 - Partly cloudy - - - - -
01/09:30am 10.8 SW 19 27 1019.1 - 0.0 - Partly cloudy - - - - -
01/09:16am 10.3 SW 19 30 1018.9 - 0.0 - Partly cloudy - - - - -
01/09:00am 10.5 SW 28 37 1018.8 - 21.4 - - - - - - -
01/08:45am 10.8 SW 28 40 1018.4 - 21.4 - Partly cloudy - - - - -
01/08:30am 10.9 SW 26 35 1018.1 - 21.4 - Partly cloudy - - - - -
01/08:00am 10.6 SW 20 30 1017.7 - 21.4 - Partly cloudy - - - - -
01/07:37am 10.1 SW 24 34 1017.4 - 21.4 - Partly cloudy - - - - -
01/07:30am 10.3 SW 25 33 1017.3 - 21.4 - Partly cloudy - - - - -
01/07:05am 10.5 SW 24 34 1016.8 - 21.4 - Partly cloudy - - - - -
01/07:00am 10.4 SW 26 34 1016.9 - 21.4 - Partly cloudy - - - - -
01/06:39am 10.1 SW 25 35 1016.6 - 21.4 - Partly cloudy - - - - -
01/06:30am 10.1 SW 27 34 1016.4 - 21.4 - Partly cloudy - - - - -
01/06:00am 9.8 SW 18 29 1015.8 - 21.4 - Mostly clear - - - - -
01/05:30am 9.8 WSW 20 32 1015.1 - 21.4 - Partly cloudy - - - - -
01/05:27am 10.0 SW 19 29 1015.1 - 21.4 - Partly cloudy - - - - -
01/05:01am 10.0 SW 31 41 1014.6 - 21.4 - - - - - - -
01/05:00am 9.8 SW 32 41 1014.6 - 21.4 - - - - - - -
01/04:31am 10.2 SW 29 39 1013.8 - 21.4 - Partly cloudy - - - - -
01/04:30am 10.1 SW 30 39 1013.8 - 21.4 - Partly cloudy - - - - -
01/04:06am 9.9 SW 25 35 1013.2 - 21.4 - Partly cloudy - - - - -
01/04:00am 9.9 SW 26 33 1013.3 - 21.4 - Partly cloudy - - - - -
01/03:30am 8.7 SSW 24 31 1012.9 - 21.4 - Partly cloudy - - - - -
01/03:28am 8.5 SSW 23 28 1012.9 - 21.4 - Partly cloudy - - - - -
01/03:00am 9.6 SW 30 42 1012.3 - 21.4 Recent precip. Mostly cloudy - - - - -
01/02:30am 9.7 SW 35 46 1011.9 - 21.4 - Partly cloudy - - - - -
01/02:12am 9.2 SW 30 40 1011.3 - 21.4 - Partly cloudy - - - - -
01/02:07am 8.0 SW 20 30 1011.6 - 21.4 - Partly cloudy - - - - -
01/02:05am 7.3 SW 19 28 1011.6 - 21.4 - Partly cloudy - - - - -
01/02:00am 6.7 SW 30 41 1011.9 - 20.2 - Partly cloudy - - - - -
01/01:30am 9.5 SW 27 38 1010.8 - 18.8 - Partly cloudy - - - - -
01/01:15am 9.4 SW 29 39 1010.9 - 18.8 - Partly cloudy - - - - -
01/01:00am 9.3 SW 31 39 1010.6 - 18.8 - - - - - - -
01/12:30am 9.1 SW 31 39 1010.3 - 18.8 - Partly cloudy - - - - -
01/12:00am 9.2 SW 34 44 1009.4 - 18.8 Recent precip. Mostly cloudy - - - - -
 
Date/Time
EST
Temp

°C
Wind Pressure Rain
since 9am
mm
Weather Cloud Vis
km
Sea
Height
m
Swell
Dir
 
Speed
knots
Gust
knots
hPa Trend Height
m
Period
s
Dir
30/11:57pm 9.1 SW 34 44 1009.4 - 18.8 - Partly cloudy - - - - -
30/11:52pm 9.1 SW 37 44 1009.3 - 18.8 - Partly cloudy - - - - -
30/11:40pm 9.3 SW 25 36 1009.1 - 18.8 - Partly cloudy - - - - -
30/11:35pm 8.8 SW 35 39 1009.1 - 18.8 - Partly cloudy - - - - -
30/11:30pm 8.6 SW 23 36 1008.9 - 18.8 - Partly cloudy - - - - -
30/11:01pm 7.3 SW 29 42 1008.9 - 18.6 - Partly cloudy - - - - -
30/11:00pm 7.9 SW 29 37 1008.9 - 18.6 - Partly cloudy - - - - -
30/10:47pm 8.0 SW 25 33 1008.6 - 18.6 - Partly cloudy - - - - -
30/10:30pm 7.3 SW 37 43 1008.3 - 18.6 - Partly cloudy - - - - -
30/10:28pm 7.4 SW 38 43 1008.1 - 18.6 - Partly cloudy - - - - -
30/10:26pm 8.0 WSW 17 42 1008.1 - 18.6 - Partly cloudy - - - - -
30/10:06pm 7.9 SW 19 29 1008.1 - 18.6 - Partly cloudy - - - - -
30/10:00pm 7.7 SW 22 30 1007.9 - 18.6 - Partly cloudy - - - - -
30/09:35pm 7.0 SW 22 32 1007.5 - 18.6 - Partly cloudy - - - - -
30/09:30pm 7.2 SW 25 33 1007.3 - 18.6 - Partly cloudy - - - - -
30/09:17pm 6.9 SW 25 37 1007.2 - 18.6 - Partly cloudy - - - - -
30/09:07pm 6.5 W 25 37 1007.0 - 18.0 - Partly cloudy - - - - -
30/09:00pm 6.8 SW 29 41 1007.1 - 17.2 Rain Cloudy - - - - -
30/08:53pm 7.7 SW 28 39 1006.5 - 16.4 - Partly cloudy - - - - -
30/08:30pm 9.5 WSW 16 28 1006.1 - 16.2 - - - - - - -
30/08:00pm 9.4 WSW 18 30 1005.7 - 16.2 - Partly cloudy - - - - -
30/07:30pm 8.8 WSW 22 36 1005.1 - 16.2 - Partly cloudy - - - - -
30/07:00pm 10.9 WSW 18 36 1004.2 - 15.4 - Partly cloudy - - - - -
30/06:30pm 10.8 WSW 19 35 1003.6 - 15.4 - Partly cloudy - - - - -
30/06:00pm 9.7 WSW 22 43 1002.9 - 15.4 - Mostly cloudy - - - - -
30/05:30pm 9.8 WSW 22 37 1002.4 - 15.4 - Partly cloudy - - - - -
30/05:27pm 9.3 WSW 23 37 1002.4 - 15.4 - Partly cloudy - - - - -
30/05:12pm 8.5 SW 35 49 1002.0 - 15.4 - Partly cloudy - - - - -
30/05:11pm 8.9 W 22 49 1001.9 - 15.4 - Partly cloudy - - - - -
30/05:00pm 10.1 W 23 37 1001.7 - 15.4 - Partly cloudy - - - - -
30/04:30pm 8.5 WSW 22 46 1000.9 - 14.4 - Partly cloudy - - - - -
30/04:00pm 10.6 WSW 21 41 1000.1 - 13.4 - Partly cloudy - - - - -
30/03:30pm 10.0 W 23 36 999.8 - 13.4 - Partly cloudy - - - - -
30/03:00pm 9.5 WSW 25 45 998.6 - 12.6 Rain Cloudy - - - - -
30/02:30pm 10.3 W 23 36 998.3 - 11.2 - Partly cloudy - - - - -
30/02:01pm 10.4 W 21 31 998.1 - 10.6 - Partly cloudy - - - - -
30/02:00pm 10.4 W 21 29 998.1 - 10.6 - Partly cloudy - - - - -
30/01:31pm 11.6 WNW 22 32 997.8 - 8.4 - Partly cloudy - - - - -
30/01:30pm 11.8 WNW 22 29 997.8 - 8.4 - Partly cloudy - - - - -
30/01:00pm 11.9 W 22 30 997.6 - 8.4 - Partly cloudy - - - - -
30/12:30pm 11.0 W 23 36 998.1 - 8.4 - Partly cloudy - - - - -
30/12:26pm 10.8 W 27 37 998.2 - 8.4 - Partly cloudy - - - - -
30/12:08pm 11.4 WNW 29 38 997.9 - 7.4 - Partly cloudy - - - - -
30/12:00pm 11.5 WNW 30 38 998.2 - 7.2 Rain Mostly cloudy - - - - -
30/11:32am 12.3 WNW 22 32 998.7 - 4.4 - Partly cloudy - - - - -
30/11:30am 12.3 WNW 22 33 998.6 - 4.2 - Partly cloudy - - - - -
30/11:21am 12.0 WNW 27 37 998.6 - 3.6 - Partly cloudy - - - - -
30/11:12am 11.6 WNW 29 38 998.6 - 2.8 - Partly cloudy - - - - -
30/11:01am 12.5 NW 29 41 999.1 - 1.6 - Partly cloudy - - - - -
30/11:00am 12.5 NW 29 41 999.1 - 1.6 - Partly cloudy - - - - -
30/10:53am 12.9 NNW 28 38 999.2 - 1.0 - Partly cloudy - - - - -
30/10:30am 13.0 NNW 28 37 999.5 - 0.4 - Partly cloudy - - - - -
30/10:06am 13.2 NNW 29 39 999.9 - 0.0 - Partly cloudy - - - - -
30/10:02am 13.3 NW 27 38 1000.0 - 0.0 - Partly cloudy - - - - -
30/10:00am 13.3 NW 26 35 1000.1 - 0.0 - Partly cloudy - - - - -
30/09:45am 13.6 NNW 27 37 1000.5 - 0.0 - Partly cloudy - - - - -
30/09:30am 13.8 NW 26 36 1000.8 - 0.0 - Partly cloudy - - - - -
30/09:22am 13.6 NW 26 36 1001.0 - 0.0 - Partly cloudy - - - - -
30/09:00am 13.4 NNW 29 37 1001.1 - 0.0 - Cloudy - - - - -
30/08:32am 13.4 NNW 26 36 1001.4 - 0.0 - Partly cloudy - - - - -
30/08:30am 13.4 NNW 26 35 1001.5 - 0.0 - Partly cloudy - - - - -
30/08:00am 13.3 NNW 26 33 1002.0 - 0.0 - Partly cloudy - - - - -
30/07:30am 13.0 NNW 23 30 1002.4 - 0.0 - Partly cloudy - - - - -
30/07:00am 12.8 NNW 25 32 1002.9 - 0.0 - Partly cloudy - - - - -
30/06:30am 12.8 NNW 25 34 1003.2 - 0.0 - Partly cloudy - - - - -
30/06:00am 12.8 NNW 26 31 1003.5 - 0.0 - Cloudy - - - - -
30/05:30am 12.6 NNW 26 32 1003.4 - 0.0 - Partly cloudy - - - - -
30/05:00am 12.8 NNW 23 33 1003.8 - 0.0 - Partly cloudy - - - - -
30/04:56am 12.8 NNW 23 33 1003.9 - 0.0 - Partly cloudy - - - - -
30/04:30am 12.6 NNW 24 31 1004.0 - 0.0 - - - - - - -
30/04:00am 12.5 NNW 22 27 1004.4 - 0.0 - - - - - - -
30/03:30am 12.5 NNW 20 25 1004.6 - 0.0 - - - - - - -
30/03:00am 12.5 NNW 18 23 1005.0 - 0.0 - - - - - - -
30/02:30am 12.6 NNW 20 23 1005.7 - 0.0 - - - - - - -
30/02:15am 12.7 NNW 17 27 1005.9 - 0.0 - - - - - - -
30/02:00am 12.7 NNW 19 27 1006.0 - 0.0 - - - - - - -
30/01:30am 12.8 NW 22 27 1006.6 - 0.0 - - - - - - -
30/01:00am 12.7 NW 17 24 1007.1 - 0.0 - - - - - - -
30/12:30am 12.6 NW 18 24 1007.5 - 0.0 - - - - - - -
30/12:00am 12.6 NW 17 25 1008.0 - 0.0 - Partly cloudy - - - - -
 
Date/Time
EST
Temp

°C
Wind Pressure Rain
since 9am
mm
Weather Cloud Vis
km
Sea
Height
m
Swell
Dir
 
Speed
knots
Gust
knots
hPa Trend Height
m
Period
s
Dir
29/11:30pm 13.2 WNW 22 30 1008.6 - 0.0 - Partly cloudy - - - - -
29/11:00pm 13.2 WNW 20 28 1008.8 - 0.0 - Partly cloudy - - - - -
29/10:30pm 13.2 WNW 21 28 1009.0 - 0.0 - Partly cloudy - - - - -
29/10:00pm 13.1 WNW 22 28 1009.1 - 0.0 - Partly cloudy - - - - -
29/09:30pm 13.2 WNW 18 25 1009.1 - 0.0 - Partly cloudy - - - - -
29/09:00pm 13.1 WNW 18 24 1009.1 - 0.0 - Cloudy - - - - -
29/08:30pm 13.1 WNW 20 26 1009.0 - 0.0 - Partly cloudy - - - - -
29/08:00pm 12.9 WNW 16 22 1008.8 - 0.0 - Partly cloudy - - - - -
29/07:30pm 12.9 NW 16 19 1008.9 - 0.0 - Partly cloudy - - - - -
29/07:00pm 13.0 WNW 14 19 1008.7 - 0.0 - Partly cloudy - - - - -
29/06:30pm 13.1 NW 15 21 1008.6 - 0.0 - Cloudy - - - - -
29/06:00pm 13.1 NW 17 23 1008.4 - 0.0 - Mostly cloudy - - - - -
29/05:30pm 13.1 WNW 21 27 1008.6 - 0.0 - Partly cloudy - - - - -

Other Formats:

Comma delimited format used in spreadsheet applications
http://www.bom.gov.au/fwo/IDV60701/IDV60701.95954.axf

JavaScript Object Notation format (JSON) in row-major order
http://www.bom.gov.au/fwo/IDV60701/IDV60701.95954.json